Location: Borderline Observatory
(42.7345°N, 72.8696°W)
Time: 16:02:50
(UTC-04:00)

Daily predictions for brighter satellites

Satellite Brightness Start Highest point End
(mag) Time Altitude Azimuth Time Altitude Azimuth Time Altitude Azimuth
Meteor 2-5 Rocket 4.4 19:14:53 10° N 19:20:16 36° ENE 19:25:32 10° SE
SPOT 3 Rocket 4.2 19:16:45 10° S 19:21:50 63° WSW 19:26:59 10° NNW
Cosmos 1943 Rocket 2.2 19:21:44 10° NNW 19:27:17 63° ENE 19:32:49 10° SE
Cosmos 2181 Rocket 4.1 19:23:44 10° N 19:29:52 57° ENE 19:35:54 10° SSE
Cosmos 1825 Rocket 3.5 19:29:21 10° N 19:33:46 75° E 19:38:12 10° SSE
Spot 2 Rocket 4.5 19:33:24 10° ESE 19:37:33 27° ENE 19:41:43 10° N
Cosmos 1184 Rocket 3.8 19:34:54 10° NNW 19:38:13 52° W 19:41:30 10° S
H-2A R/B 2.7 19:34:47 10° SSE 19:38:24 58° ENE 19:42:07 10° N
Cosmos 1898 Rocket 3.5 19:40:38 10° NNW 19:45:51 90° N 19:51:01 10° SSE
FengYun 1-2 T 4.2 19:40:26 10° SSE 19:46:02 78° ENE 19:51:38 10° N
COSMOS 2406 4.3 19:43:27 10° SSE 19:47:43 22° E 19:52:01 10° NE
USA 81 4.0 19:43:45 10° N 19:49:01 63° E 19:54:14 10° SSE
Cosmos 1814 Rocket 3.9 19:46:15 10° S 19:51:20 61° ESE 19:56:25 10° NNE
Cosmos 2074 Rocket 4.3 19:46:18 10° SSE 19:52:06 44° E 19:57:57 10° NNE
Cosmos 304 Rocket 4.3 19:49:08 10° SSE 19:53:26 34° ESE 19:57:46 10° NE
Cosmos 482 Debris 3.7 19:50:13 10° WNW 19:54:25 77° SW 19:56:04 21° SE
Tiangong 2 3.8 19:53:33 10° WSW 19:55:14 14° SSW 19:56:54 10° S
Cosmos 1707 2.7 19:52:35 10° N 19:56:32 81° E 20:00:28 10° S
Cosmos 2150 Rocket 4.0 19:55:48 10° NNW 20:01:08 80° ENE 20:06:32 10° SSE
Cosmos 1709 Rocket 4.4 19:55:07 10° SSW 20:01:26 69° W 20:07:49 10° N
Cosmos 2369 Rocket 3.5 19:56:40 10° NW 20:01:57 41° WSW 20:07:09 10° S
Cosmos 990 Rocket 3.9 19:56:48 10° NNW 20:02:00 81° ENE 20:07:09 10° SSE
SL-08 ROCKET BODY 4.3 19:57:21 10° S 20:03:11 76° E 20:09:07 10° N
Cosmos 1340 Rocket 3.3 19:59:51 10° NNW 20:03:52 63° W 20:07:54 10° S
Cosmos 1758 Rocket 4.0 20:00:21 10° NNW 20:04:48 66° W 20:09:15 10° S
Resurs 1-3 3.8 20:03:09 14° SE 20:06:40 48° ENE 20:10:55 10° N
Envisat 3.3 20:05:29 15° SE 20:09:22 46° ENE 20:14:13 10° N
ALOS 4.0 20:05:19 10° SSW 20:09:33 34° W 20:13:49 10° NNW
Cosmos 1356 Rocket 3.5 20:05:28 10° N 20:09:42 57° ENE 20:13:05 15° SSE
Cosmos 1656 Rocket 3.7 20:04:25 10° NNW 20:10:03 62° ENE 20:14:09 18° SE
Cosmos 389 Rocket 3.8 20:06:46 10° SSW 20:10:08 43° WNW 20:13:30 10° N
Lacrosse 5 3.7 20:06:47 10° WNW 20:11:02 27° SW 20:15:16 10° S
BREEZE M DEB (TANK) 3.1 20:03:52 10° WNW 20:11:28 83° NNE 20:12:58 31° ESE
Cosmos 1726 Rocket 4.1 20:09:14 10° SSW 20:13:33 59° W 20:17:52 10° N
Resurs 01 Rocket 1.5 20:16:42 14° SSE 20:20:27 74° ENE 20:24:53 10° N
BREEZE-M DEB (TANK) 4.3 20:18:30 10° WNW 20:22:25 49° NNE 20:31:44 17° E
USA 186 2.0 20:25:29 40° NNE 20:25:29 40° NNE 20:27:16 10° N
Cosmos 2184 Rocket 3.9 20:18:51 10° S 20:25:07 77° E 20:31:29 10° N
Cosmos 1805 4.4 20:27:11 27° NE 20:27:11 27° NE 20:29:30 10° NNE
In-Cosmos 22 4.2 20:21:15 10° N 20:26:53 64° ENE 20:31:00 19° SSE
CZ-2D R/B 3.5 20:26:31 12° S 20:29:58 66° W 20:33:47 10° NNW
GP-B 3.2 20:25:52 10° NNE 20:30:14 53° E 20:31:49 34° SE
FALCON 9 R/B 2.8 20:28:14 10° SW 20:31:32 35° SSE 20:33:19 29° SE
Cosmos 1937 Rocket 4.5 20:28:21 10° NNW 20:33:27 48° WSW 20:38:29 10° S
ATLAS 2AS CENTAUR R/B 4.3 20:27:59 10° NNW 20:34:32 26° NNE 20:38:20 18° ENE
Cosmos 1610 Rocket 4.5 20:28:20 10° S 20:34:35 65° E 20:40:55 10° NNE
Cosmos 841 Rocket 3.4 20:29:34 10° SSW 20:34:44 85° WNW 20:39:54 10° NNE
Meteor 1-24 Rocket 3.8 20:32:25 10° N 20:38:28 85° W 20:43:59 12° S
YAOGAN 6 3.7 20:44:48 32° NNE 20:44:48 32° NNE 20:47:06 10° N
NOSS 3-1 (A) 4.0 20:36:52 10° NW 20:44:29 79° NE 20:48:54 32° SE
BREEZE-M DEB (TANK) 3.9 20:47:04 10° NW 20:47:45 16° NNW 20:47:45 16° NNW
Cosmos 1812 Rocket 3.4 20:48:56 56° SSE 20:49:43 71° E 20:54:11 10° NNE
Cosmos 1544 3.1 20:49:31 62° SW 20:50:01 76° W 20:53:39 10° N
Cosmos 2084 3.6 20:48:42 10° SW 20:52:44 62° NW 20:54:36 28° NNE
NOSS 3-1 (C) 4.2 20:47:46 10° NW 20:55:24 74° WSW 21:00:23 27° SSE
MOS 1-B Rocket 4.3 20:55:10 13° S 21:00:59 66° WSW 21:06:44 10° NNW
ATLAS CENTAUR R/B 3.6 20:51:30 10° NW 21:03:31 52° WSW 21:05:46 32° S
GEOS 3 Rocket 3.6 20:59:56 10° NE 21:05:21 86° NW 21:10:45 10° SW
Cosmos 540 Rocket 3.3 21:01:53 10° SSW 21:06:59 87° WNW 21:12:08 10° NNE
Meteor 2-19 Rocket 4.5 21:05:49 10° SSW 21:11:52 77° W 21:17:57 10° N
Cosmos 962 Rocket 4.4 21:11:22 48° SSE 21:13:14 73° E 21:19:36 10° NNE
Cosmos 1980 Rocket 4.2 21:12:19 10° NNE 21:14:44 14° NE 21:14:44 14° NE
Cosmos 1697 Rocket 4.3 21:11:47 10° N 21:15:21 21° NE 21:15:21 21° NE
Cosmos 1939 Rocket 3.8 21:19:29 44° W 21:19:29 44° W 21:22:53 10° NNW
BREEZE-M DEB (TANK) 3.0 21:12:48 10° WSW 21:21:11 78° SW 21:21:11 78° SW
Meteor 1-21 Rocket 4.1 21:19:15 10° N 21:25:04 87° E 21:25:08 86° ESE
Cosmos 2154 Rocket 4.3 21:23:37 10° SSW 21:29:45 63° W 21:35:58 10° N
COSMOS 2406 3.8 21:25:59 10° SW 21:31:34 55° WNW 21:37:13 10° NNE
Cosmos 2341 Rocket 4.0 21:34:12 56° SSW 21:35:35 79° W 21:41:50 10° N
Cosmos 1125 Rocket 4.2 21:33:24 10° NNW 21:38:28 47° WSW 21:38:48 46° WSW
H-2A R/B 3.6 21:42:16 25° NNE 21:42:16 25° NNE 21:44:36 10° N
NOAA 11 4.4 21:42:52 67° NW 21:42:52 67° NW 21:47:43 10° NNW
ERS-1 Rocket 3.9 21:51:22 43° NNW 21:51:22 43° NNW 21:54:46 10° NNW
Terra 4.3 21:53:43 12° NNE 21:53:43 12° NNE 21:54:15 10° NNE
Cosmos 2369 4.4 21:46:07 10° NNW 21:50:08 45° N 21:50:08 45° N
ARGOS 4.0 21:57:12 45° NNW 21:57:12 45° NNW 22:00:54 10° NNW
ATLAS 2AS CENTAUR R/B 3.2 22:18:54 10° NNW 22:25:45 64° N 22:25:45 64° N
USA 267 4.3 22:55:44 39° NNW 22:55:44 39° NNW 23:00:07 10° NW
Cosmos 1980 Rocket 4.3 22:54:34 10° NNW 22:56:29 22° NNW 22:56:29 22° NNW
